This is the latest recevied weather packets stored in our database for station/object KC3WWU. If no packets are shown the sender has not sent any weather packets the latest 10 day(s).
| Time | Temp. | Humidity | Pressure | Rain* | Wind** | Luminosity | Snow |
|---|---|---|---|---|---|---|---|
| 1778009702 | 21.67° C | 54% | 1006.7 hPa | 0 mm | - | 56 W/m² | - |
| 1778009399 | 22.22° C | 52% | 1006.3 hPa | 0 mm | - | 84 W/m² | - |
| 1778009098 | 22.78° C | 52% | 1006.3 hPa | 0 mm | - | 231 W/m² | - |
| 1778008795 | 22.22° C | 51% | 1006.4 hPa | 0 mm | - | 510 W/m² | - |
| 1778008493 | 21.67° C | 52% | 1006.3 hPa | 0 mm | - | 290 W/m² | - |
| 1778008190 | 21.67° C | 52% | 1006.4 hPa | 0 mm | - | 245 W/m² | - |
| 1778007885 | 21.67° C | 52% | 1006.9 hPa | 0 mm | - | 184 W/m² | - |
| 1778007581 | 21.67° C | 52% | 1006.7 hPa | 0 mm | - | 213 W/m² | - |
| 1778007278 | 22.22° C | 52% | 1006.8 hPa | 0 mm | - | 236 W/m² | - |
| 1778006974 | 22.22° C | 51% | 1006.8 hPa | 0 mm | - | 408 W/m² | - |
| 1778006671 | 22.22° C | 51% | 1006.8 hPa | 0 mm | - | 329 W/m² | - |
| 1778006368 | 21.67° C | 51% | 1006.8 hPa | 0 mm | - | 288 W/m² | - |
| 1778006065 | 21.67° C | 50% | 1006.8 hPa | 0 mm | - | 256 W/m² | - |
| 1778005762 | 21.67° C | 51% | 1006.8 hPa | 0 mm | - | 232 W/m² | - |
| 1778005458 | 21.67° C | 52% | 1006.7 hPa | 0 mm | - | 225 W/m² | - |
| 1778005155 | 21.67° C | 50% | 1006.4 hPa | 0 mm | - | 254 W/m² | - |
| 1778004852 | 21.11° C | 51% | 1006.8 hPa | 0 mm | - | 232 W/m² | - |
| 1778004549 | 21.67° C | 51% | 1006.7 hPa | 0 mm | - | 166 W/m² | - |
| 1778004245 | 21.67° C | 51% | 1006.7 hPa | 0 mm | - | 182 W/m² | - |
| 1778003942 | 21.67° C | 51% | 1006.8 hPa | 0 mm | - | 209 W/m² | - |
| 1778003638 | 21.67° C | 51% | 1006.4 hPa | 0 mm | - | 315 W/m² | - |
| 1778003335 | 21.67° C | 50% | 1006.7 hPa | 0 mm | - | 218 W/m² | - |
| 1778003032 | 21.67° C | 50% | 1006.4 hPa | 0 mm | - | 238 W/m² | - |
| 1778002728 | 21.67° C | 51% | 1006.8 hPa | 0 mm | - | 372 W/m² | - |
| 1778002425 | 21.67° C | 51% | 1006.8 hPa | 0 mm | - | 180 W/m² | - |
* Rain latest hour (hover to see other rain measurements)
** Current wind speed in m/s (hover to see current wind gust speed)